Tracking 29892 objects as of 21-Nov-2024
HD Live streaming from Space Station
objects crossing your sky now

ORBCOMM FM 35

Track ORBCOMM FM 35 now!
10-day predictions
ORBCOMM FM 35 is classified as:


NORAD ID: 25985
Int'l Code: 1999-065F
Perigee: 777.1 km
Apogee: 779.4 km
Inclination: 45.0 °
Period: 100.3 minutes
Semi major axis: 7149 km
RCS: 0.5674 m2 (medium)
Launch date: December 4, 1999
Source: ORBCOMM (ORB)
Launch site: AIR FORCE EASTERN TEST RANGE (AFETR)
Your satellite tracking list
Your tracking list is empty




NASA's NSSDC Master Catalog

Two Line Element Set (TLE):
1 25985U 99065F   24325.49649812  .00001622  00000-0  59915-3 0  9990
2 25985  45.0411   2.6259 0001571  44.6434 315.4540 14.36192959304962
Source of the keplerian elements: AFSPC